"Pseudo-MPEC" for C0F3591

Created 2019 Sep 20 12:37:54 UT using Find_Orb

Click here for an explanation of pseudo-MPECs

 
 Astrometry: 
     C0F3591  C2019 09 20.22185 22 47 46.27 -06 42 25.7    ~9KCO 18.2 GVNEOCP703
     C0F3591  C2019 09 20.23254 22 49 05.17 -06 31 06.3    ~9KCO 19.0 GVNEOCP703
     C0F3591  C2019 09 20.27678 22 54 23.16 -05 44 19.7    ~9KCO 17.6 GVNEOCPI52
     C0F3591  C2019 09 20.27716 22 54 25.88 -05 43 55.3    ~9KCO 17.5 GVNEOCPI52
     C0F3591  C2019 09 20.27755 22 54 28.62 -05 43 30.8    ~9KCO 17.6 GVNEOCPI52
     C0F3591  C2019 09 20.27793 22 54 31.32 -05 43 06.3    ~9KCO 17.7 GVNEOCPI52
     C0F3591  C2019 09 20.36078 23 04 23.46 -04 15 43.8    ~9KCO 17.4 GVNEOCPI52
     C0F3591  C2019 09 20.36129 23 04 27.24 -04 15 11.5    ~9KCO 17.6 GVNEOCPI52
     C0F3591  C2019 09 20.36291 23 04 39.18 -04 13 30.3    ~9KCO 17.4 GVNEOCPI52
     C0F3591  C2019 09 20.36342 23 04 42.98 -04 12 57.8    ~9KCO 17.2 GVNEOCPI52

Station data:
(703) Catalina Sky Survey  (N32.417006 W110.732640)  US/Arizona.  Observers
   T. A. Pruyne, B. M. Africano, E. J. Christensen, G. A. Farneth, D. C.
   Fuls, A. R. Gibbs, A. D. Grauer, H. Gröller, J. A. Johnson, R. A.
   Kowalski, S. M. Larson, G. J. Leonard, D. Rankin, R. L. Seaman, F. C.
   Shelly. 0.68 m Schmidt + 10K CCD.
(I52) Steward Observatory, Mt. Lemmon Station  (N32.442547 W110.788920)
   US/Arizona.  Observers T. A. Pruyne, B. M. Africano, E. J. Christensen, G.
   A. Farneth, D. C. Fuls, A. R. Gibbs, A. D. Grauer, H. Gröller, J. A.
   Johnson, R. A. Kowalski, S. M. Larson, G. J. Leonard, D. Rankin, R. L.
   Seaman, F. C. Shelly. 1.0-m reflector + CCD.

Orbital elements:  C0F3591
   Perigee 2019 Sep 19.372334 +/- 0.00718 TT =  8:56:09 (JD 2458745.872334)
Epoch 2019 Sep 20.0 TT = JDT 2458746.5                        Gray
M 103.1207393355 +/- 0.30           (J2000 equator)
n 164.2923965663 +/- 1.48           Peri.  177.8682992 +/- 0.18
a 71262.085783 +/- 427              Node   354.0719606 +/- 0.27
e   0.651615079 +/- 0.00317         Incl.   20.3422530 +/- 0.024
P3155.29m/2.191d           H 32.9   G  0.15   U 13.0  
q 24826.636110 +/- 377    Q 117697.53545 +/- 484
From 10 observations 2019 Sept. 20 (3.4 hr); mean residual 0".307
Residuals in arcseconds: 
190920 703 .570- .380-    190920 I52 .172- .259-    190920 I52 .212- .272-    
190920 703 .744+ .526+    190920 I52 5.3m+ .085+    190920 I52 .211+ .233+    
190920 I52 .352- .211-    190920 I52 .111- .095-    
190920 I52 .114+ .033+    190920 I52 .161+ .191+    

Ephemerides (geocentric):
Date (UTC) HH   RA              Dec         delta   r     elong  mag " sig PA
---- --------  --------------  -----------  -----  ------ -----  --- --------
2019 09 20 13  23 41 04.505   +00 26 35.24  117308 1.0051 177.4 Sha  74.6  69
2019 09 20 14  23 48 17.781   +01 06 42.47  116750 1.0051 177.7 Sha  91.8  71
2019 09 20 15  23 55 36.352   +01 47 13.92  115946 1.0051 176.7 17.8  113  73
2019 09 20 16  00 03 02.344   +02 28 17.95  114893 1.0051 175.0 17.8  139  74
2019 09 20 17  00 10 38.067   +03 10 03.43  113589 1.0051 173.2 17.8  170  75
2019 09 20 18  00 18 26.079   +03 52 39.94  112029 1.0050 171.3 17.9  208  75
2019 09 20 19  00 26 29.274   +04 36 17.95  110208 1.0050 169.2 17.9  254  75
2019 09 20 20  00 34 50.980   +05 21 09.01  108120 1.0050 167.1 18.0  311  75
2019 09 20 21  00 43 35.100   +06 07 26.04  105758 1.0049 164.9 18.0  380  75
2019 09 20 22  00 52 46.292   +06 55 23.60  103113 1.0049 162.5 18.0  465  75
2019 09 20 23  01 02 30.216   +07 45 18.20  100175 1.0049 160.0 18.1  570  75
2019 09 21 00  01 12 53.876   +08 37 28.72   96934 1.0048 157.4 18.1  701  75
2019 09 21 01  01 24 06.116   +09 32 16.71   93375 1.0048 154.5 18.1  865  75
2019 09 21 02  01 36 18.330   +10 30 06.70   89484 1.0047 151.4 18.1 1075  75
2019 09 21 03  01 49 45.539   +11 31 26.12   85243 1.0047 148.0 18.1 1347  76
2019 09 21 04  02 04 48.060   +12 36 44.52   80634 1.0046 144.2 18.1 1705  76
2019 09 21 05  02 21 54.171   +13 46 30.66   75635 1.0046 139.9 18.0 2188  77
2019 09 21 06  02 41 44.546   +15 01 04.77   70223 1.0045 135.0 18.0 2856  78
2019 09 21 07  03 05 19.926   +16 20 18.49   64376 1.0044 129.2 18.0 3815  79
2019 09 21 08  03 34 14.973   +17 42 43.03   58079 1.0043 122.2 18.0 5251  81
2019 09 21 09  04 11 04.107   +19 03 10.52   51338 1.0043 113.5 18.0 7517  84
2019 09 21 10  05 00 09.813   +20 06 26.97   44215 1.0042 101.9 18.0 189'  87
2019 09 21 11  06 09 01.692   +20 08 54.93   36936 1.0041  85.8 18.2 302'  93
2019 09 21 12  07 48 55.535   +17 14 22.21   30161 1.0040  62.0 19.1 499' 101
2019 09 21 13  10 07 20.743   +07 58 58.28   25552 1.0039  27.2 23?? 736' 109
2019 09 21 14  12 45 32.973   -06 17 56.95   25496 1.0039  15.0 27?? 749' 109
2019 09 21 15  15 03 31.846   -16 14 46.25   30032 1.0039  50.0 20?? 558' 102
2019 09 21 16  16 43 32.768   -19 50 48.33   36784 1.0040  73.9 18.8 393'  94
2019 09 21 17  17 52 53.844   -20 17 25.78   44064 1.0040  90.2 18.4 289'  88
2019 09 21 18  18 42 31.493   -19 33 37.37   51194 1.0041 101.8 18.3 224'  84
2019 09 21 19  19 19 48.686   -18 26 34.47   57945 1.0042 110.7 18.3 182'  81
2019 09 21 20  19 49 06.966   -17 13 47.37   64252 1.0042 117.7 18.3 9186  78
2019 09 21 21  20 13 01.348   -16 01 43.91   70109 1.0043 123.5 18.3 7934  77
2019 09 21 22  20 33 07.311   -14 52 40.55   75530 1.0043 128.4 18.3 6999  75
2019 09 21 23  20 50 26.315   -13 47 15.15   80537 1.0043 132.7 18.4 6279  74
2019 09 22 00  21 05 39.595   -12 45 26.48   85154 1.0044 136.5 18.4 5712  73
2019 09 22 01  21 19 15.859   -11 46 58.49   89402 1.0044 139.9 18.4 5256  73
2019 09 22 02  21 31 35.747   -10 51 30.39   93300 1.0044 143.0 18.4 4885  72
2019 09 22 03  21 42 54.530   -09 58 40.98   96866 1.0045 145.9 18.4 4578  71
2019 09 22 04  21 53 23.791   -09 08 10.25  100113 1.0045 148.6 18.4 4323  71
2019 09 22 05  22 03 12.519   -08 19 40.03  103057 1.0045 151.1 18.4 4109  71
2019 09 22 06  22 12 27.834   -07 32 53.98  105708 1.0045 153.5 18.4 3930  70
2019 09 22 07  22 21 15.485   -06 47 37.53  108076 1.0045 155.7 18.4 3779  70
2019 09 22 08  22 29 40.203   -06 03 37.63  110170 1.0046 157.9 18.3 3654  70
2019 09 22 09  22 37 45.946   -05 20 42.54  111996 1.0046 160.0 18.3 3550  70
2019 09 22 10  22 45 36.088   -04 38 41.62  113561 1.0046 162.0 18.3 3465  70
2019 09 22 11  22 53 13.556   -03 57 25.12  114871 1.0046 164.0 18.2 3398  70
2019 09 22 12  23 00 40.936   -03 16 44.02  115929 1.0046 165.9 18.2 3348  70
2019 09 22 13  23 08 00.558   -02 36 29.87  116738 1.0046 167.8 18.1 3313  70
2019 09 22 14  23 15 14.564   -01 56 34.63  117302 1.0046 169.6 18.1 3293  70
2019 09 22 15  23 22 24.964   -01 16 50.57  117621 1.0046 171.4 18.0 3288  70
2019 09 22 16  23 29 33.684   -00 37 10.11  117697 1.0046 173.2 17.9 3299  70
2019 09 22 17  23 36 42.617   +00 02 34.26  117531 1.0046 175.0 17.8 3325  70
2019 09 22 18  23 43 53.657   +00 42 30.12  117120 1.0045 176.6 17.7 3368  70
2019 09 22 19  23 51 08.752   +01 22 45.26  116465 1.0045 177.7 Sha  3428  70
2019 09 22 20  23 58 29.945   +02 03 27.74  115564 1.0045 177.6 Sha  3509  70
2019 09 22 21  00 05 59.426   +02 44 46.10  114412 1.0045 176.3 17.7 3611  70
2019 09 22 22  00 13 39.592   +03 26 49.46  113008 1.0045 174.5 17.8 3738  70
2019 09 22 23  00 21 33.122   +04 09 47.72  111345 1.0044 172.6 17.8 3893  70
2019 09 23 00  00 29 43.065   +04 53 51.75  109419 1.0044 170.5 17.9 4082  71